Weather reports worldwide

Advertisment
Amsterdam Airport, Netherlands (6240): temperature & dewpoint: 09.12.2018 23:00:00 - 15.12.2018 23:00:00 (CET)Amsterdam Airport, Netherlands (6240): temperature 5cm: 09.12.2018 23:00:00 - 15.12.2018 23:00:00 (CET)Amsterdam Airport, Netherlands (6240): wind speed & gusts: 09.12.2018 23:00:00 - 15.12.2018 23:00:00 (CET)Amsterdam Airport, Netherlands (6240): wind direction: 09.12.2018 23:00:00 - 15.12.2018 23:00:00 (CET)Amsterdam Airport, Netherlands (6240): reduced air pressure: 09.12.2018 23:00:00 - 15.12.2018 23:00:00 (CET)Amsterdam Airport, Netherlands (6240): visibility: 09.12.2018 23:00:00 - 15.12.2018 23:00:00 (CET)Amsterdam Airport, Netherlands (6240): precipitation: 09.12.2018 23:00:00 - 15.12.2018 23:00:00 (CET)
Date & Time tt [°C] td [°C] tt 5cm [°C] ff [km/h] ff [kn] fx [km/h] fx [kn] dd ppp [hPa] vv [km] rr [mm]
15.12.2018 23:00:00 - - - - - - - - - - -
15.12.2018 22:00:00 0,2 -4,5 -0,3 34 18 61 33 SE 1012,5 10 0,0
15.12.2018 21:00:00 0,0 -4,5 -0,8 37 20 54 29 SE 1013,7 10 0,1
15.12.2018 20:00:00 0,0 -4,6 -0,8 34 18 47 25 SE 1015,4 10 0,0
15.12.2018 19:00:00 0,3 -4,7 -0,8 31 17 47 25 SE 1016,5 10 0,0
15.12.2018 18:00:00 -0,1 -5,0 -1,1 29 16 50 27 SE 1017,5 10 0,0
15.12.2018 17:00:00 0,5 -5,4 0,0 35 19 54 29 SSE 1019,0 10 0,0
15.12.2018 16:00:00 0,5 -5,4 0,0 31 17 47 25 SE 1019,9 10 0,0
15.12.2018 15:00:00 0,5 -5,6 0,2 29 16 43 23 SSE 1021,0 10 0,0
15.12.2018 14:00:00 0,5 -5,8 0,3 26 14 36 19 SSE 1022,3 10 0,0
15.12.2018 13:00:00 0,6 -4,9 0,3 26 14 40 21 SSE 1023,1 10 0,0
15.12.2018 12:00:00 0,7 -5,4 0,4 22 12 32 18 SE 1024,1 10 0,0
15.12.2018 11:00:00 0,8 -4,3 0,4 18 10 29 16 SE 1024,9 10 0,0
15.12.2018 10:00:00 0,7 -3,8 0,1 15 8 25 14 SE 1025,1 10 0,0
15.12.2018 09:00:00 0,7 -3,5 0,1 16 9 25 14 SE 1025,0 10 0,0
15.12.2018 08:00:00 0,7 -2,9 0,0 13 7 22 12 ESE 1024,9 10 0,0
15.12.2018 07:00:00 0,5 -2,2 -0,1 13 7 18 10 ESE 1024,9 10 0,0
15.12.2018 06:00:00 0,6 -2,1 0,1 13 7 18 10 ESE 1025,1 10 0,0
15.12.2018 05:00:00 0,7 -2,2 0,1 15 8 22 12 E 1025,3 10 0,0
15.12.2018 04:00:00 0,5 -2,2 -0,1 11 6 18 10 E 1025,5 10 0,0
15.12.2018 03:00:00 0,7 -2,3 0,1 8 4 11 6 E 1026,0 10 0,0
15.12.2018 02:00:00 0,9 -2,8 0,3 8 4 14 8 ESE 1026,1 10 0,0
15.12.2018 01:00:00 1,2 -2,9 0,5 9 5 14 8 ESE 1026,0 10 0,0
15.12.2018 00:00:00 1,1 -2,6 0,4 8 4 18 10 E 1025,8 10 0,0
14.12.2018 23:00:00 1,2 -1,8 0,5 13 7 18 10 E 1025,5 10 0,0
14.12.2018 22:00:00 1,2 -1,6 0,5 11 6 18 10 E 1025,8 10 0,0
14.12.2018 21:00:00 1,2 -1,3 0,4 13 7 22 12 E 1025,8 10 0,0
14.12.2018 20:00:00 1,1 -1,0 -0,1 9 5 14 8 E 1026,2 10 0,0
14.12.2018 19:00:00 -0,1 -1,6 -2,4 9 5 14 8 ENE 1025,9 10 0,0
14.12.2018 18:00:00 -1,0 -2,5 -2,5 11 6 14 8 ENE 1025,9 10 0,0
14.12.2018 17:00:00 0,6 -1,6 -1,3 11 6 14 8 E 1025,5 10 0,0
14.12.2018 16:00:00 0,6 -1,7 -0,8 9 5 18 10 E 1024,9 10 0,0
14.12.2018 15:00:00 1,7 -0,9 1,3 13 7 22 12 ENE 1024,3 10 0,0
14.12.2018 14:00:00 3,6 -0,8 3,3 13 7 25 14 E 1024,3 10 0,0
14.12.2018 13:00:00 3,1 -0,5 3,0 15 8 25 14 E 1024,4 10 0,0
14.12.2018 12:00:00 2,5 -0,5 2,8 15 8 25 14 ENE 1024,5 10 0,0
14.12.2018 11:00:00 2,4 -0,3 1,6 15 8 22 12 ENE 1024,9 10 0,0
14.12.2018 10:00:00 2,2 0,0 2,2 15 8 22 12 ENE 1024,6 10 0,0
14.12.2018 09:00:00 1,9 0,4 1,5 15 8 25 14 ENE 1024,3 10 0,0
14.12.2018 08:00:00 1,8 0,4 1,3 13 7 22 12 ENE 1023,8 10 0,0
14.12.2018 07:00:00 1,8 0,3 1,1 13 7 22 12 ENE 1023,3 10 0,0
14.12.2018 06:00:00 1,7 0,2 1,0 13 7 22 12 ENE 1022,9 10 0,0
14.12.2018 05:00:00 1,4 0,0 0,6 15 8 22 12 ENE 1023,0 10 0,0
14.12.2018 04:00:00 1,1 -0,3 -0,2 16 9 22 12 ENE 1023,0 10 0,0
14.12.2018 03:00:00 0,4 -0,8 -1,5 13 7 22 12 ENE 1023,1 10 0,0
14.12.2018 02:00:00 0,5 -0,7 -0,9 15 8 22 12 ENE 1023,0 10 0,0
14.12.2018 01:00:00 1,6 -0,4 0,8 15 8 22 12 ENE 1023,0 10 0,0
14.12.2018 00:00:00 1,7 -0,3 1,2 16 9 25 14 ENE 1023,1 10 0,0
13.12.2018 23:00:00 1,8 -0,3 1,4 18 10 29 16 ENE 1023,0 10 0,0
13.12.2018 22:00:00 1,9 -0,5 1,2 21 11 29 16 ENE 1023,1 10 0,0
13.12.2018 21:00:00 1,6 -0,5 0,7 18 10 29 16 E 1022,8 10 0,0
13.12.2018 20:00:00 1,4 -0,8 0,3 24 13 36 19 ENE 1022,5 10 0,0
13.12.2018 19:00:00 1,8 -0,8 0,2 21 11 36 19 ENE 1021,9 10 0,0
13.12.2018 18:00:00 1,8 -0,7 0,5 22 12 32 18 ENE 1022,0 10 0,0
13.12.2018 17:00:00 2,1 -0,6 0,6 22 12 32 18 ENE 1022,0 10 0,0
13.12.2018 16:00:00 2,3 -0,7 1,1 24 13 32 18 ENE 1021,8 10 0,0
13.12.2018 15:00:00 2,4 -0,5 1,7 22 12 36 19 E 1021,7 10 0,0
13.12.2018 14:00:00 2,2 -0,5 1,9 26 14 40 21 E 1021,8 10 0,0
13.12.2018 13:00:00 2,6 -0,5 2,6 26 14 36 19 E 1022,2 10 0,0
13.12.2018 12:00:00 2,6 -0,3 2,1 24 13 36 19 E 1022,4 10 0,0
13.12.2018 11:00:00 1,9 -0,4 0,8 22 12 32 18 E 1022,8 10 0,0
13.12.2018 10:00:00 1,0 -0,5 0,0 18 10 29 16 E 1023,1 10 0,0
13.12.2018 09:00:00 0,7 -0,5 -0,3 18 10 32 18 E 1022,8 10 0,0
13.12.2018 08:00:00 1,0 -0,2 -0,1 22 12 32 18 E 1022,6 9 0,0
13.12.2018 07:00:00 1,0 0,0 0,1 22 12 32 18 E 1022,2 8 0,0
13.12.2018 06:00:00 1,1 -0,4 0,0 21 11 29 16 E 1022,4 10 0,0
13.12.2018 05:00:00 1,1 -0,5 -0,7 16 9 25 14 ENE 1022,9 10 0,0
13.12.2018 04:00:00 0,2 -0,7 -0,6 16 9 25 14 E 1023,4 10 0,0
13.12.2018 03:00:00 1,1 0,1 0,0 15 8 25 14 E 1023,9 10 0,0
13.12.2018 02:00:00 1,6 0,5 0,5 21 11 29 16 E 1023,9 10 0,0
13.12.2018 01:00:00 1,7 0,5 0,4 18 10 29 16 E 1024,2 10 0,0
13.12.2018 00:00:00 1,4 0,1 0,3 18 10 25 14 E 1024,7 10 0,0
12.12.2018 23:00:00 1,2 -0,1 -0,4 15 8 18 10 E 1025,1 10 0,0
12.12.2018 22:00:00 1,4 -0,1 0,0 11 6 18 10 E 1025,5 10 0,0
12.12.2018 21:00:00 1,7 0,0 0,4 15 8 18 10 E 1025,6 10 0,0
12.12.2018 20:00:00 1,9 -0,5 -1,1 13 7 18 10 E 1025,5 10 0,0
12.12.2018 19:00:00 1,4 -2,0 0,2 8 4 25 14 E 1025,6 10 0,0
12.12.2018 18:00:00 4,0 -1,2 2,9 13 7 25 14 E 1025,8 10 0,0
12.12.2018 17:00:00 4,0 -1,1 2,9 13 7 29 16 ESE 1025,9 10 0,0
12.12.2018 16:00:00 4,1 -0,7 3,4 15 8 25 14 E 1025,6 10 0,0
12.12.2018 15:00:00 4,6 0,3 4,1 16 9 29 16 SE 1025,7 10 0,0
12.12.2018 14:00:00 4,8 0,1 4,9 18 10 29 16 ENE 1026,0 10 0,0
12.12.2018 13:00:00 5,4 1,5 5,0 11 6 18 10 ESE 1026,4 10 0,0
12.12.2018 12:00:00 4,8 1,3 3,7 11 6 22 12 E 1027,0 10 0,0
12.12.2018 11:00:00 4,0 1,3 3,0 16 9 22 12 E 1027,1 10 0,0
12.12.2018 10:00:00 3,7 2,2 2,6 11 6 22 12 E 1026,9 10 0,0
12.12.2018 09:00:00 2,7 2,2 1,2 8 4 14 8 E 1026,5 10 0,0
12.12.2018 08:00:00 2,2 1,8 0,2 5 3 11 6 ENE 1026,2 10 0,0
12.12.2018 07:00:00 0,3 -0,1 -0,5 2 1 4 2 - 1025,7 10 0,0
12.12.2018 06:00:00 -0,4 -0,8 -1,5 2 1 11 6 - 1025,5 10 0,0
12.12.2018 05:00:00 -1,2 -1,7 -3,0 2 1 7 4 ENE 1025,2 10 0,0
12.12.2018 04:00:00 -1,1 -1,5 -2,8 2 1 4 2 - 1025,4 10 0,0
12.12.2018 03:00:00 0,0 -0,3 -2,5 0 0 0 0 N 1025,2 10 0,0
12.12.2018 02:00:00 -1,0 -1,5 -2,0 2 1 4 2 - 1025,2 10 0,0
12.12.2018 01:00:00 0,8 0,3 -1,1 4 2 4 2 W 1025,1 10 0,0
12.12.2018 00:00:00 1,1 0,7 -0,2 4 2 4 2 NW 1025,1 10 0,0
11.12.2018 23:00:00 1,0 0,6 -0,3 2 1 4 2 W 1025,2 10 0,0
11.12.2018 22:00:00 1,9 1,6 -0,5 2 1 7 4 NE 1025,1 10 0,0
11.12.2018 21:00:00 3,0 2,5 1,0 4 2 4 2 W 1024,8 10 0,0
11.12.2018 20:00:00 3,7 3,2 2,2 4 2 11 6 NW 1024,8 10 0,0
11.12.2018 19:00:00 4,2 3,2 3,3 8 4 11 6 W 1024,6 10 0,0
11.12.2018 18:00:00 4,1 2,1 3,3 4 2 11 6 - 1024,3 10 0,0
11.12.2018 17:00:00 5,2 3,4 3,8 9 5 11 6 NW 1024,3 10 0,0
11.12.2018 16:00:00 5,8 4,2 5,2 9 5 14 8 W 1024,3 10 0,0
11.12.2018 15:00:00 6,6 3,4 6,2 15 8 25 14 N 1024,2 10 0,0
11.12.2018 14:00:00 6,8 3,6 6,2 11 6 22 12 N 1024,4 10 0,1
11.12.2018 13:00:00 6,0 3,5 5,9 18 10 25 14 N 1024,6 10 0,2
11.12.2018 12:00:00 7,5 4,3 6,6 2 1 7 4 - 1024,6 10 0,0
11.12.2018 11:00:00 7,0 3,4 4,5 5 3 11 6 W 1024,6 10 0,0
11.12.2018 10:00:00 5,1 3,7 3,7 4 2 14 8 - 1024,5 10 0,2
11.12.2018 09:00:00 3,4 2,2 1,7 5 3 14 8 W 1024,5 10 0,0
11.12.2018 08:00:00 3,4 2,5 2,4 11 6 22 12 W 1024,1 10 0,0
11.12.2018 07:00:00 5,3 3,2 4,1 15 8 25 14 N 1024,0 10 0,3
11.12.2018 06:00:00 5,5 2,9 4,3 16 9 32 18 NNW 1024,1 10 0,1
11.12.2018 05:00:00 5,6 1,9 2,2 13 7 29 16 NW 1023,8 10 0,0
11.12.2018 04:00:00 4,5 2,0 3,1 13 7 18 10 NW 1024,0 10 0,0
11.12.2018 03:00:00 4,8 1,7 2,7 16 9 25 14 WNW 1023,8 10 0,0
11.12.2018 02:00:00 5,0 1,8 3,1 15 8 29 16 NW 1023,9 10 0,0
11.12.2018 01:00:00 5,2 2,4 3,0 18 10 36 19 WNW 1024,2 10 0,0
11.12.2018 00:00:00 5,5 2,4 3,5 18 10 32 18 NW 1024,0 10 0,0
10.12.2018 23:00:00 4,6 2,3 3,0 13 7 32 18 WNW 1023,9 10 0,0
10.12.2018 22:00:00 5,7 2,4 3,8 22 12 40 21 NW 1023,9 10 0,0
10.12.2018 21:00:00 5,5 3,1 4,7 22 12 36 19 NNW 1023,8 9 0,1
10.12.2018 20:00:00 6,0 2,0 3,9 22 12 36 19 NW 1023,4 10 0,0
10.12.2018 19:00:00 5,5 1,8 3,5 21 11 36 19 NW 1023,5 10 0,4
10.12.2018 18:00:00 6,2 2,4 4,6 31 17 47 25 NW 1023,2 10 0,0
10.12.2018 17:00:00 6,3 2,1 4,6 21 11 40 21 NW 1023,0 10 0,0
10.12.2018 16:00:00 5,7 2,8 4,7 28 15 58 31 NW 1022,8 10 0,3
10.12.2018 15:00:00 7,2 1,1 5,7 29 16 54 29 NW 1022,0 10 0,0
10.12.2018 14:00:00 7,1 1,5 6,0 37 20 50 27 NW 1021,8 10 0,0
10.12.2018 13:00:00 7,3 2,7 6,5 28 15 47 25 NW 1021,7 10 0,0
10.12.2018 12:00:00 7,2 3,1 6,2 24 13 50 27 NW 1021,4 10 0,1
10.12.2018 11:00:00 6,1 3,6 5,5 15 8 50 27 WNW 1021,6 10 0,8
10.12.2018 10:00:00 6,1 3,4 5,1 29 16 61 33 WNW 1020,9 10 0,6
10.12.2018 09:00:00 6,1 2,4 4,5 28 15 43 23 NW 1020,4 10 0,0
10.12.2018 08:00:00 5,1 1,6 3,3 22 12 32 18 NW 1019,6 10 0,0
10.12.2018 07:00:00 5,9 2,8 3,9 18 10 36 19 WNW 1019,5 10 0,0
10.12.2018 06:00:00 3,8 2,5 2,0 9 5 32 18 WNW 1019,2 10 0,0
10.12.2018 05:00:00 5,4 2,3 3,4 16 9 58 31 NW 1018,7 10 0,0
10.12.2018 04:00:00 6,3 2,9 4,4 26 14 43 23 WNW 1017,7 9 0,0
10.12.2018 03:00:00 5,8 2,6 4,4 31 17 58 31 NW 1017,6 7 0,1
10.12.2018 02:00:00 5,8 3,1 3,7 21 11 47 25 WNW 1016,9 10 0,3
10.12.2018 01:00:00 6,5 3,0 4,8 26 14 43 23 WNW 1016,4 10 0,0
10.12.2018 00:00:00 6,1 2,2 4,1 26 14 72 39 NW 1015,6 10 0,1
09.12.2018 23:00:00 7,2 3,0 5,6 31 17 54 29 NW 1014,7 10 0,0

tt = temperature
td = dewpoint
tt 5cm = temperature 5cm
ff = wind speed
fx = gusts
dd = wind direction
ppp = reduced air pressure
vv = visibility
rr = precipitation

Next stations